Location: Briis
(48.6240°N, 2.1211°E)
Time: 11:21:39
(UTC+00:00)

ADEOS II - Pass Details

Date: 25 September 2020
Orbit: 799 x 801 km, 98.5° (Epoch: 30 October)

Event Time Altitude Azimuth Distance (km) Brightness Sun altitude
Rises 02:11:59 0° 15° (NNE) 3,321 6.1 -32.6°
Reaches altitude 10° 02:14:20 10° 17° (NNE) 2,386 5.2 -32.4°
Enters shadow 02:18:20 52° 33° (NNE) 994 2.8 -31.9°
